Flag for Greece

Past Weather in 35°20'18.2"N, 25°08'12.3"E, Greece — Yesterday and Last 2 Weeks

Currently: 81 °F. Scattered clouds. (Weather station: Heraklion Airport, Greece). See more current weather

Past Weather in 35°20'18.2"N, 25°08'12.3"E — Graph

°F

35°20'18.2"N, 25°08'12.3"E Temperature Yesterday

Maximum temperature yesterday: 84 °F (at 2:50 pm)
Minimum temperature yesterday: 79 °F (at 5:50 am)
Average temperature yesterday: 81 °F

High & Low Weather Summary for the Past Weeks

 TemperatureHumidityPressure
High99 °F (Jun 13, 10:20 am)88% (Jun 17, 4:50 am)29.95 "Hg (Jun 17, 4:50 am)
Low68 °F (Jun 10, 5:50 am)19% (Jun 13, 10:50 am)29.77 "Hg (Jun 21, 3:50 am)
Average82 °F55%29.87 "Hg
* Reported Jun 6 7:20 am — Jun 21 7:20 am, 35°20'18.2"N, 25°08'12.3"E. Weather by CustomWeather, © 2024

Note: Actual official high and low records may vary slightly from our data, if they occured in-between our weather recording intervals... More about our weather records

35°20'18.2"N, 25°08'12.3"E Weather History for the Previous 24 Hours

Scroll right to see more
 ConditionsComfort  
Time TempWeatherWind HumidityBarometerVisibility
7:20 am
Fri, Jun 21
79 °FScattered clouds.13 mph65%29.80 "HgN/A
6:50 am79 °FScattered clouds.14 mph65%29.80 "HgN/A
6:20 am79 °FScattered clouds.16 mph61%29.80 "HgN/A
5:50 am79 °FPassing clouds.22 mph65%29.80 "HgN/A
5:20 am79 °FPassing clouds.17 mph61%29.80 "HgN/A
4:50 am81 °FPassing clouds.16 mph54%29.80 "HgN/A
4:20 am79 °FPassing clouds.6 mph54%29.77 "HgN/A
3:50 am79 °FPassing clouds.7 mph54%29.77 "HgN/A
3:20 am79 °FPassing clouds.15 mph65%29.80 "HgN/A
2:50 am79 °FPassing clouds.6 mph65%29.83 "HgN/A
2:20 am79 °FPassing clouds.14 mph65%29.86 "HgN/A
1:50 am79 °FPassing clouds.15 mph65%29.86 "HgN/A
1:20 am81 °FPassing clouds.7 mph58%29.86 "HgN/A
12:50 am81 °FPassing clouds.14 mph58%29.86 "HgN/A
11:50 pm
Thu, Jun 20
81 °FPassing clouds.13 mph58%29.86 "HgN/A
11:20 pm81 °FPassing clouds.12 mph66%29.86 "HgN/A
10:50 pm81 °FPassing clouds.10 mph66%29.86 "HgN/A
10:20 pm81 °FPassing clouds.12 mph66%29.86 "HgN/A
9:50 pm79 °FPassing clouds.14 mph65%29.86 "HgN/A
9:20 pm79 °FPassing clouds.15 mph65%29.86 "HgN/A
8:50 pm79 °FPassing clouds.16 mph65%29.83 "HgN/A
8:20 pm81 °FPassing clouds.17 mph62%29.86 "HgN/A
7:50 pm81 °FPassing clouds.18 mph70%29.83 "HgN/A
7:20 pm81 °FSunny.17 mph58%29.83 "Hg10 mi
6:50 pm82 °FPassing clouds.17 mph58%29.83 "HgN/A
6:20 pm82 °FPassing clouds.17 mph58%29.83 "HgN/A
5:50 pm82 °FPassing clouds.17 mph58%29.83 "HgN/A
5:20 pm84 °FPassing clouds.17 mph55%29.83 "HgN/A
4:50 pm84 °FPassing clouds.20 mph55%29.83 "HgN/A
4:20 pm84 °FPassing clouds.20 mph55%29.83 "HgN/A
3:50 pm84 °FPassing clouds.18 mph55%29.86 "HgN/A
3:20 pm84 °FPassing clouds.20 mph55%29.86 "HgN/A
2:50 pm84 °FPassing clouds.21 mph55%29.86 "HgN/A
2:20 pm82 °FPassing clouds.21 mph58%29.86 "HgN/A
1:50 pm82 °FPassing clouds.21 mph58%29.86 "HgN/A
1:20 pm82 °FPassing clouds.18 mph58%29.86 "HgN/A
12:50 pm82 °FPassing clouds.22 mph58%29.86 "HgN/A
11:50 am82 °FPassing clouds.22 mph58%29.86 "HgN/A
11:20 am82 °FPassing clouds.23 mph58%29.86 "HgN/A
10:50 am82 °FPassing clouds.18 mph58%29.86 "HgN/A
10:20 am82 °FPassing clouds.22 mph58%29.86 "HgN/A
9:50 am82 °FPassing clouds.22 mph58%29.86 "HgN/A
9:20 am82 °FPassing clouds.17 mph58%29.86 "HgN/A
8:50 am82 °FSunny.16 mph55%29.86 "Hg10 mi
8:20 am82 °FSunny.16 mph51%29.86 "Hg10 mi
Weather by CustomWeather, © 2024

See weather overview